Weather in Ul'yanovskoye

Russia / Chechen Republic     43°37′48″N   45°36′09″E
temp.,
°C
wind,
m/s
gust,
m/s
humid.,
%
clouds,
%
prec.,
mm/h
press.,
hPa
HPBL,
m
17 may, mon
mon1700:00+19ese47395 0.0 1004124
03:00+17ese33535 0.0 100441
06:00+18ese22615 0.0 100475
09:00+25e34385 0.0 1004455
12:00+31e45290 0.0 1003891
15:00+31e782874 0.0 1001878
18:00+25e2247100 0.0 1003125
21:00+20wsw3474100 0.0 1005126
18 may, tue
tue1800:00+19w713836 0.1 1005495
03:00+18wnw91483100 0.6 1007746
06:00+18w7128269 0.3 1009804
09:00+20wnw8965100 0.4 10101110
12:00+22wnw7856100 0.0 10111526
15:00+25wnw564680 0.1 10111889
18:00+23wnw45545 0.0 1012756
21:00+18wnw33685 0.0 101230
19 may, wed
wed1900:00+17nw12720 0.0 101111
03:00+15s11780 0.0 101011
06:00+17ese237342 0.0 1009101
09:00+23ene23505 0.0 1009875
12:00+26nnw32370 0.0 10091724
15:00+27nnw6539100 0.1 10102446
18:00+16nw7138870 5.9 1014612
21:00+16wsw4788100 7.4 1017258
20 may, thu
thu2000:00+16sw358391 0.1 1016170
03:00+15nw228496 0.1 101732
06:00+16ene23791 0.0 1018156
09:00+20ene45460 0.0 10171017
12:00+23e67370 0.0 10161515
15:00+25e67350 0.0 10151732
18:00+22ese79420 0.0 1015648
21:00+17e410590 0.0 1015312
21 may, fri
fri2100:00+14e37730 0.0 1014202
03:00+13ese410820 0.0 1014266
06:00+15ese49770 0.0 1013319
09:00+23e57540 0.0 1012642
12:00+29e67380 0.0 1010943
15:00+30e88370 0.0 1010954
18:00+25e69510 0.0 1010460
21:00+19e59640 0.0 1011266